Regional Weather Roundup
Issued by NWS

Home | Current Version | Previous Version | Graphics & Text | Print | Product List | Glossary Off
Versions: 1 2 3 4 5 6 7 8 9 10 11 12 13 14 15 16 17 18 19 20 21 22 23 24 25 26 27 28 29 30 31 32 33 34 35 36 37 38 39 40 41 42 43 44 45 46 47 48 49 50

000
ASUS43 KIND 191209
RWRIN

WEATHER ROUNDUP FOR INDIANA
NATIONAL WEATHER SERVICE INDIANAPOLIS IN
800 AM EDT THU APR 19 2018

NOTE: "FAIR" INDICATES FEW OR NO CLOUDS BELOW 12,000 FEET WITH NO
SIGNIFICANT WEATHER AND/OR OBSTRUCTIONS TO VISIBILITY.

* - STATION DOES NOT REPORT WEATHER SUCH AS PRECIPITATION OR FOG.

+ - STATION NOT QUALITY CONTROLLED BY THE NATIONAL WEATHER SERVICE.
    USE DATA WITH CAUTION...ESPECIALLY DEWPOINT AND RELATIVE
    HUMIDITY OBSERVATIONS.

INZ001>003-010>013-019-020-191300-
NORTHWEST INDIANA

CITY           SKY/WX    TMP DP  RH WIND       PRES   REMARKS
GARY /AIRPORT/ PTCLDY    37  34  87 N17       30.18R WCI  28
KNOX *+        FAIR      32  32 100 N6        30.15R WCI  26
LA PORTE +     FAIR      34  32  92 N9        30.15R WCI  27
6HR MIN TEMP:  32; 6HR MAX TEMP:  34;

MICHIGAN CITY+ FAIR      36  34  93 N7        30.17R WCI  30
MONTICELLO +   CLOUDY    34  32  92 N14       30.14R WCI  25
6HR MIN TEMP:  32; 6HR MAX TEMP:  34;

RENSSELAER +   MOCLDY    34  32  93 NW5       30.16R WCI  30
VALPARAISO     FAIR      37  33  85 N8        30.16R WCI  31
6HR MIN TEMP:  34; 6HR MAX TEMP:  37; 6HR PCP:  0.01;


$$

LMZ046-743>745-191300-
SOUTHERN LAKE MICHIGAN

STATION/POSITION TIME  TEMP    WIND        PRES    WAVE
                       AIR SEA DIR/SP/G            HT
                 (UTC) (F)     (DEG/KT/KT) (MB)    (FT)
BURNS HARBOR     1140   38     360/ 15/ 19 1021.7R
MICHIGAN CITY    1140   37     340/ 19/ 21   N/A

$$

INZ004-005-014>016-021>024-191300-
NORTH CENTRAL INDIANA

CITY           SKY/WX    TMP DP  RH WIND       PRES   REMARKS
ELKHART        FAIR      32  32 100 NW5       30.12R WCI  27
GOSHEN         FAIR      33  31  92 NW14      30.11R WCI  23
6HR MIN TEMP:  33; 6HR MAX TEMP:  35; 6HR PCP:  0.03;

LOGANSPORT +   FAIR      34  32  93 N10       30.13R WCI  26
PERU/GRISSOM   MOSUNNY   34  34 100 N10       30.10R WCI  26
6HR MIN TEMP:  33; 6HR MAX TEMP:  35; 6HR PCP:  0.03;

ROCHESTER +    FAIR      36  32  87 N8        30.12R WCI  29
SOUTH BEND     FAIR      33  31  92 NW10      30.14R WCI  25
6HR MIN TEMP:  32; 6HR MAX TEMP:  33; 6HR PCP:  0.07;

WARSAW +       FAIR      32  32 100 N8        30.11R WCI  25

$$

INZ006>009-017-018-025>027-191300-
NORTHEAST INDIANA

CITY           SKY/WX    TMP DP  RH WIND       PRES   REMARKS
ANGOLA *+      FAIR      32  30  93 NW7       30.07R WCI  26
AUBURN +       FAIR      32  32 100 NW10      30.08R WCI  24
FORT WAYNE     FAIR      34  31  88 N8        30.09R WCI  27
6HR MIN TEMP:  33; 6HR MAX TEMP:  36; 6HR PCP:  0.10;

HUNTINGTON +   FAIR      32  32  98 N7        30.09R WCI  26
6HR MIN TEMP:  32; 6HR MAX TEMP:  35; 6HR PCP:  0.03;

KENDALLVILLE +   N/A    N/A N/A N/A MISG        N/A

$$

INZ028-029-035-036-043>045-051>053-191300-
WEST CENTRAL INDIANA

CITY           SKY/WX    TMP DP  RH WIND       PRES   REMARKS
CRAWFORDSVL +  CLOUDY    33  33 100 N9        30.14R WCI  26
6HR MIN TEMP:  32; 6HR MAX TEMP:  33;

GREENCASTLE +  CLOUDY    32  32 100 NW7       30.13R WCI  26
LAFAYETTE      CLOUDY    35  32  88 N8G18     30.15R WCI  29
6HR MIN TEMP:  33; 6HR MAX TEMP:  35; 6HR PCP: TRACE;

TERRE HAUTE    CLOUDY    35  32  88 NW12      30.16R WCI  27
6HR MIN TEMP:  35; 6HR MAX TEMP:  37; 6HR PCP: TRACE;


$$

INZ030>032-037>040-046>048-054>057-064-065-191300-
CENTRAL INDIANA

CITY           SKY/WX    TMP DP  RH WIND       PRES   REMARKS
COLUMBUS       CLOUDY    37 N/A N/A NW12G18   30.10R WCI  30
FISHERS *+     CLOUDY    34  34 100 MISG      30.11R
FRANKFORT +    CLOUDY    37  33  85 N10       30.14R WCI  30
6HR MIN TEMP:  35; 6HR MAX TEMP:  37;

GREENWOOD *+   CLOUDY    35  32  88 NW12G17   30.10R WCI  26
INDIANAPOLIS   CLOUDY    36  32  85 NW16      30.10R WCI  26
6HR MIN TEMP:  34; 6HR MAX TEMP:  37; 6HR PCP: TRACE;

-EAGLE CREEK   CLOUDY    36  32  85 N10       30.09R WCI  28
6HR MIN TEMP:  35; 6HR MAX TEMP:  37;

KOKOMO +       CLOUDY    34  33  96 N12       30.12R WCI  25
6HR MIN TEMP:  32; 6HR MAX TEMP:  35; 6HR PCP:  0.01;

MARION +       CLOUDY    33  31  93 N9G16     30.10R WCI  25
MT COMFORT *+  CLOUDY    34  34 100 N12       30.09R WCI  25
SHELBYVILLE    CLOUDY    37  30  75 NW13      30.08R WCI  29
6HR MIN TEMP:  36; 6HR MAX TEMP:  40; 6HR PCP: TRACE;

ZIONSVILLE +   CLOUDY    33  32  94 N12G18    30.11R WCI  25
6HR MIN TEMP:  32; 6HR MAX TEMP:  34;


$$

INZ033-034-041-042-049-050-058-059-191300-
EAST CENTRAL INDIANA

CITY           SKY/WX    TMP DP  RH WIND       PRES   REMARKS
MUNCIE         CLOUDY    35  31  85 N16       30.07R WCI  25
6HR MIN TEMP:  35; 6HR MAX TEMP:  38; 6HR PCP:  0.01;

RICHMOND +     CLOUDY    32  32 100 NW8       30.05R WCI  25

$$

INZ060-061-067>069-081>083-085>088-191300-
SOUTHWEST INDIANA

CITY           SKY/WX    TMP DP  RH WIND       PRES   REMARKS
EVANSVILLE     CLOUDY    38  27  64 NW8G21    30.20R WCI  32
6HR MIN TEMP:  38; 6HR MAX TEMP:  42;

HUNTINGBURG +  CLOUDY    37  28  70 NW15      30.17R WCI  28
6HR MIN TEMP:  37; 6HR MAX TEMP:  41;

WASHINGTON +   CLOUDY    36  28  72 NW13G18   30.17R WCI  28
6HR MIN TEMP:  36; 6HR MAX TEMP:  39;


$$

INZ062-063-066-070>080-084-089>092-191300-
SOUTH CENTRAL AND SOUTHEAST INDIANA

CITY           SKY/WX    TMP DP  RH WIND       PRES   REMARKS
BATESVILLE +   CLOUDY    36  32  87 MISG      30.07R
BEDFORD +      CLOUDY    36  28  75 W7        30.11R WCI  30
BLOOMINGTON    CLOUDY    35  29  78 NW9       30.12R WCI  28
6HR MIN TEMP:  34; 6HR MAX TEMP:  38; 6HR PCP: TRACE;

FRENCH LICK *+ CLOUDY    34  28  80 NW6       30.15R WCI  29
MADISON *+     CLOUDY    36  28  75 W13G20    30.11R WCI  27
NORTH VERNON + CLOUDY    36  28  75 W15       30.10R WCI  26
SEYMOUR +      CLOUDY    39  28  65 NW9       30.11R WCI  33

$$





USA.gov is the U.S. government's official web portal to all federal, state and local government web resources and services.